#datetime,building,power
2022-07-26T00:00:00,pkn,9.60
2022-07-26T00:01:00,pkn,6.00
2022-07-26T00:03:00,pkn,9.60
2022-07-26T00:05:00,pkn,6.00
2022-07-26T00:07:00,pkn,1.20
2022-07-26T00:09:00,pkn,2.40
2022-07-26T00:12:00,pkn,1.20
2022-07-26T00:13:00,pkn,1.20
2022-07-26T00:15:00,pkn,1.20
2022-07-26T00:17:00,pkn,1.20
2022-07-26T00:19:00,pkn,1.20
2022-07-26T00:22:00,pkn,1.20
2022-07-26T00:23:00,pkn,1.20
2022-07-26T00:25:00,pkn,1.20
2022-07-26T00:27:00,pkn,1.20
2022-07-26T00:29:00,pkn,1.20
2022-07-26T00:31:00,pkn,1.20
2022-07-26T00:33:00,pkn,3.60
2022-07-26T00:35:00,pkn,9.60
2022-07-26T00:37:00,pkn,9.60
2022-07-26T00:39:00,pkn,9.60
2022-07-26T00:40:00,pkn,4.80
2022-07-26T00:42:00,pkn,9.60
2022-07-26T00:43:00,pkn,3.60
2022-07-26T00:45:00,pkn,9.60
2022-07-26T00:46:00,pkn,1.20
2022-07-26T00:48:00,pkn,1.20
2022-07-26T00:51:00,pkn,1.20
2022-07-26T00:52:00,pkn,1.20
2022-07-26T00:54:00,pkn,1.20
2022-07-26T00:56:00,pkn,1.20
2022-07-26T00:57:00,pkn,1.20
2022-07-26T00:59:00,pkn,1.20
2022-07-26T01:01:00,pkn,1.20
2022-07-26T01:04:00,pkn,1.20
2022-07-26T01:06:00,pkn,1.20
2022-07-26T01:08:00,pkn,1.20
2022-07-26T01:10:00,pkn,1.20
2022-07-26T01:11:00,pkn,7.20
2022-07-26T01:13:00,pkn,9.60
2022-07-26T01:14:00,pkn,4.80
2022-07-26T01:15:00,pkn,4.80
2022-07-26T01:17:00,pkn,8.40
2022-07-26T01:18:00,pkn,1.20
2022-07-26T01:19:00,pkn,3.60
2022-07-26T01:21:00,pkn,1.20
2022-07-26T01:23:00,pkn,1.20
2022-07-26T01:25:00,pkn,1.20
2022-07-26T01:27:00,pkn,2.40
2022-07-26T01:29:00,pkn,1.20
2022-07-26T01:31:00,pkn,1.20
2022-07-26T01:32:00,pkn,1.20
2022-07-26T01:34:00,pkn,1.20
2022-07-26T01:36:00,pkn,1.20
2022-07-26T01:38:00,pkn,1.20
2022-07-26T01:39:00,pkn,1.20
2022-07-26T01:41:00,pkn,1.20
2022-07-26T01:44:00,pkn,1.20
2022-07-26T01:45:00,pkn,1.20
2022-07-26T01:47:00,pkn,1.20
2022-07-26T01:49:00,pkn,1.20
2022-07-26T01:51:00,pkn,1.20
2022-07-26T01:53:00,pkn,1.20
2022-07-26T01:55:00,pkn,1.20
2022-07-26T01:57:00,pkn,6.00
2022-07-26T01:59:00,pkn,9.60
2022-07-26T02:01:00,pkn,9.60
2022-07-26T02:02:00,pkn,4.80
2022-07-26T02:04:00,pkn,6.00
2022-07-26T02:06:00,pkn,1.20
2022-07-26T02:08:00,pkn,1.20
2022-07-26T02:10:00,pkn,1.20
2022-07-26T02:12:00,pkn,1.20
2022-07-26T02:13:00,pkn,1.20
2022-07-26T02:15:00,pkn,1.20
2022-07-26T02:18:00,pkn,1.20
2022-07-26T02:19:00,pkn,1.20
2022-07-26T02:21:00,pkn,1.20
2022-07-26T02:24:00,pkn,1.20
2022-07-26T02:26:00,pkn,1.20
2022-07-26T02:28:00,pkn,1.20
2022-07-26T02:30:00,pkn,1.20
2022-07-26T02:32:00,pkn,1.20
2022-07-26T02:34:00,pkn,1.20
2022-07-26T02:36:00,pkn,1.20
2022-07-26T02:39:00,pkn,1.20
2022-07-26T02:41:00,pkn,1.20
2022-07-26T02:42:00,pkn,1.20
2022-07-26T02:44:00,pkn,1.20
2022-07-26T02:46:00,pkn,1.20
2022-07-26T02:48:00,pkn,1.20
2022-07-26T02:50:00,pkn,1.20
2022-07-26T02:53:00,pkn,1.20
2022-07-26T02:56:00,pkn,1.20
2022-07-26T02:58:00,pkn,1.20
2022-07-26T03:00:00,pkn,1.20
2022-07-26T03:02:00,pkn,8.40
2022-07-26T03:03:00,pkn,4.80
2022-07-26T03:05:00,pkn,9.60
2022-07-26T03:06:00,pkn,6.00
2022-07-26T03:08:00,pkn,8.40
2022-07-26T03:10:00,pkn,3.60
2022-07-26T03:12:00,pkn,1.20
2022-07-26T03:14:00,pkn,1.20
2022-07-26T03:17:00,pkn,1.20
2022-07-26T03:19:00,pkn,2.40
2022-07-26T03:21:00,pkn,1.20
2022-07-26T03:24:00,pkn,1.20
2022-07-26T03:25:00,pkn,1.20
2022-07-26T03:27:00,pkn,1.20
2022-07-26T03:29:00,pkn,1.20
2022-07-26T03:31:00,pkn,1.20
2022-07-26T03:33:00,pkn,1.20
2022-07-26T03:35:00,pkn,1.20
2022-07-26T03:37:00,pkn,1.20
2022-07-26T03:39:00,pkn,1.20
2022-07-26T03:41:00,pkn,1.20
2022-07-26T03:43:00,pkn,1.20
2022-07-26T03:46:00,pkn,1.20
2022-07-26T03:47:00,pkn,1.20
2022-07-26T03:49:00,pkn,1.20
2022-07-26T03:52:00,pkn,1.20
2022-07-26T03:54:00,pkn,1.20
2022-07-26T03:57:00,pkn,1.20
2022-07-26T03:59:00,pkn,1.20
2022-07-26T04:01:00,pkn,1.20
2022-07-26T04:03:00,pkn,1.20
2022-07-26T04:05:00,pkn,1.20
2022-07-26T04:07:00,pkn,1.20
2022-07-26T04:09:00,pkn,1.20
2022-07-26T04:10:00,pkn,1.20
2022-07-26T04:13:00,pkn,1.20
2022-07-26T04:15:00,pkn,1.20
2022-07-26T04:17:00,pkn,1.20
2022-07-26T04:19:00,pkn,1.20
2022-07-26T04:20:00,pkn,1.20
2022-07-26T04:22:00,pkn,1.20
2022-07-26T04:25:00,pkn,1.20
2022-07-26T04:28:00,pkn,1.20
2022-07-26T04:29:00,pkn,1.20
2022-07-26T04:31:00,pkn,1.20
2022-07-26T04:33:00,pkn,1.20
2022-07-26T04:36:00,pkn,1.20
2022-07-26T04:37:00,pkn,1.20
2022-07-26T04:39:00,pkn,7.20
2022-07-26T04:41:00,pkn,9.60
2022-07-26T04:43:00,pkn,9.60
2022-07-26T04:44:00,pkn,3.60
2022-07-26T04:46:00,pkn,2.40
2022-07-26T04:47:00,pkn,1.20
2022-07-26T04:49:00,pkn,1.20
2022-07-26T04:50:00,pkn,1.20
2022-07-26T04:52:00,pkn,1.20
2022-07-26T04:54:00,pkn,1.20
2022-07-26T04:56:00,pkn,1.20
2022-07-26T04:58:00,pkn,1.20
2022-07-26T05:00:00,pkn,1.20
2022-07-26T05:01:00,pkn,1.20
2022-07-26T05:04:00,pkn,1.20
2022-07-26T05:06:00,pkn,1.20
2022-07-26T05:08:00,pkn,2.40
2022-07-26T05:10:00,pkn,1.20
2022-07-26T05:12:00,pkn,1.20
2022-07-26T05:14:00,pkn,1.20
2022-07-26T05:16:00,pkn,1.20
2022-07-26T05:18:00,pkn,1.20
2022-07-26T05:21:00,pkn,1.20
2022-07-26T05:22:00,pkn,1.20
2022-07-26T05:24:00,pkn,1.20
2022-07-26T05:27:00,pkn,1.20
2022-07-26T05:28:00,pkn,1.20
2022-07-26T05:30:00,pkn,1.20
2022-07-26T05:32:00,pkn,1.20
2022-07-26T05:35:00,pkn,1.20
2022-07-26T05:38:00,pkn,1.20
2022-07-26T05:39:00,pkn,1.20
2022-07-26T05:42:00,pkn,1.20
2022-07-26T05:43:00,pkn,1.20
2022-07-26T05:45:00,pkn,1.20
2022-07-26T05:47:00,pkn,1.20
2022-07-26T05:49:00,pkn,1.20
2022-07-26T05:52:00,pkn,1.20
2022-07-26T05:54:00,pkn,1.20
2022-07-26T05:56:00,pkn,1.20
2022-07-26T05:58:00,pkn,1.20
2022-07-26T06:00:00,pkn,1.20
2022-07-26T06:02:00,pkn,1.20
2022-07-26T06:06:00,pkn,1.20
2022-07-26T06:08:00,pkn,1.20
2022-07-26T06:10:00,pkn,1.20
2022-07-26T06:11:00,pkn,1.20
2022-07-26T06:13:00,pkn,1.20
2022-07-26T06:15:00,pkn,1.20
2022-07-26T06:18:00,pkn,1.20
2022-07-26T06:21:00,pkn,1.20
2022-07-26T06:23:00,pkn,1.20
2022-07-26T06:25:00,pkn,1.20
2022-07-26T06:26:00,pkn,1.20
2022-07-26T06:28:00,pkn,1.20
2022-07-26T06:30:00,pkn,1.20
2022-07-26T06:33:00,pkn,1.20
2022-07-26T06:36:00,pkn,1.20
2022-07-26T06:38:00,pkn,1.20
2022-07-26T06:39:00,pkn,1.20
2022-07-26T06:41:00,pkn,1.20
2022-07-26T06:43:00,pkn,1.20
2022-07-26T06:45:00,pkn,2.40
2022-07-26T06:47:00,pkn,9.60
2022-07-26T06:48:00,pkn,3.60
2022-07-26T06:50:00,pkn,9.60
2022-07-26T06:51:00,pkn,8.40
2022-07-26T06:52:00,pkn,8.40
2022-07-26T06:53:00,pkn,3.60
2022-07-26T06:55:00,pkn,1.20
2022-07-26T06:57:00,pkn,1.20
2022-07-26T06:59:00,pkn,1.20
2022-07-26T07:00:00,pkn,1.20
2022-07-26T07:02:00,pkn,1.20
2022-07-26T07:03:00,pkn,1.20
2022-07-26T07:05:00,pkn,1.20
2022-07-26T07:07:00,pkn,1.20
2022-07-26T07:09:00,pkn,1.20
2022-07-26T07:10:00,pkn,1.20
2022-07-26T07:12:00,pkn,1.20
2022-07-26T07:14:00,pkn,1.20
2022-07-26T07:16:00,pkn,2.40
2022-07-26T07:18:00,pkn,7.20
2022-07-26T07:20:00,pkn,9.60
2022-07-26T07:21:00,pkn,4.80
2022-07-26T07:23:00,pkn,9.60
2022-07-26T07:24:00,pkn,3.60
2022-07-26T07:26:00,pkn,3.60
2022-07-26T07:29:00,pkn,1.20
2022-07-26T07:31:00,pkn,1.20
2022-07-26T07:33:00,pkn,1.20
2022-07-26T07:35:00,pkn,1.20
2022-07-26T07:36:00,pkn,1.20
2022-07-26T07:39:00,pkn,4.80
2022-07-26T07:41:00,pkn,8.40
2022-07-26T07:42:00,pkn,6.00
2022-07-26T07:44:00,pkn,7.20
2022-07-26T07:45:00,pkn,6.00
2022-07-26T07:47:00,pkn,9.60
2022-07-26T07:49:00,pkn,3.60
2022-07-26T07:51:00,pkn,1.20
2022-07-26T07:53:00,pkn,1.20
2022-07-26T07:55:00,pkn,1.20
2022-07-26T07:58:00,pkn,1.20
2022-07-26T08:00:00,pkn,1.20
2022-07-26T08:03:00,pkn,1.20
2022-07-26T08:04:00,pkn,1.20
2022-07-26T08:08:00,pkn,1.20
2022-07-26T08:10:00,pkn,1.20
2022-07-26T08:11:00,pkn,1.20
2022-07-26T08:13:00,pkn,1.20
2022-07-26T08:15:00,pkn,1.20
2022-07-26T08:19:00,pkn,1.20
2022-07-26T08:21:00,pkn,1.20
2022-07-26T08:23:00,pkn,1.20
2022-07-26T08:25:00,pkn,8.40
2022-07-26T08:27:00,pkn,8.40
2022-07-26T08:29:00,pkn,9.60
2022-07-26T08:30:00,pkn,3.60
2022-07-26T08:31:00,pkn,1.20
2022-07-26T08:32:00,pkn,7.20
2022-07-26T08:36:00,pkn,1.20
2022-07-26T08:37:00,pkn,1.20
2022-07-26T08:39:00,pkn,1.20
2022-07-26T08:41:00,pkn,1.20
2022-07-26T08:43:00,pkn,1.20
2022-07-26T08:45:00,pkn,1.20
2022-07-26T08:48:00,pkn,3.60
2022-07-26T08:50:00,pkn,8.40
2022-07-26T08:52:00,pkn,9.60
2022-07-26T08:53:00,pkn,4.80
2022-07-26T08:54:00,pkn,6.00
2022-07-26T08:56:00,pkn,8.40
2022-07-26T08:58:00,pkn,10.80
2022-07-26T09:00:00,pkn,9.60
2022-07-26T09:01:00,pkn,4.80
2022-07-26T09:03:00,pkn,10.80
2022-07-26T09:04:00,pkn,3.60
2022-07-26T09:06:00,pkn,10.80
2022-07-26T09:07:00,pkn,3.60
2022-07-26T09:08:00,pkn,1.20
2022-07-26T09:09:00,pkn,9.60
2022-07-26T09:11:00,pkn,6.00
2022-07-26T09:13:00,pkn,1.20
2022-07-26T09:15:00,pkn,1.20
2022-07-26T09:17:00,pkn,1.20
2022-07-26T09:20:00,pkn,1.20
2022-07-26T09:23:00,pkn,1.20
2022-07-26T09:24:00,pkn,1.20
2022-07-26T09:26:00,pkn,1.20
2022-07-26T09:28:00,pkn,7.20
2022-07-26T09:29:00,pkn,3.60
2022-07-26T09:31:00,pkn,9.60
2022-07-26T09:32:00,pkn,1.20
2022-07-26T09:33:00,pkn,8.40
2022-07-26T09:34:00,pkn,4.80
2022-07-26T09:36:00,pkn,9.60
2022-07-26T09:38:00,pkn,8.40
2022-07-26T09:41:00,pkn,1.20
2022-07-26T09:44:00,pkn,1.20
2022-07-26T09:45:00,pkn,1.20
2022-07-26T09:47:00,pkn,1.20
2022-07-26T09:50:00,pkn,1.20
2022-07-26T09:52:00,pkn,1.20
2022-07-26T09:54:00,pkn,1.20
2022-07-26T09:56:00,pkn,1.20
2022-07-26T09:59:00,pkn,1.20
2022-07-26T10:01:00,pkn,1.20
2022-07-26T10:03:00,pkn,3.60
2022-07-26T10:04:00,pkn,6.00
2022-07-26T10:06:00,pkn,8.40
2022-07-26T10:07:00,pkn,6.00
2022-07-26T10:08:00,pkn,3.60
2022-07-26T10:09:00,pkn,1.20
2022-07-26T10:10:00,pkn,8.40
2022-07-26T10:12:00,pkn,3.60
2022-07-26T10:13:00,pkn,1.20
2022-07-26T10:15:00,pkn,1.20
2022-07-26T10:17:00,pkn,1.20
2022-07-26T10:19:00,pkn,1.20
2022-07-26T10:20:00,pkn,1.20
2022-07-26T10:23:00,pkn,1.20
2022-07-26T10:25:00,pkn,1.20
2022-07-26T10:27:00,pkn,1.20
2022-07-26T10:29:00,pkn,1.20
2022-07-26T10:31:00,pkn,1.20
2022-07-26T10:35:00,pkn,1.20
2022-07-26T10:37:00,pkn,1.20
2022-07-26T10:39:00,pkn,1.20
2022-07-26T10:41:00,pkn,2.40
2022-07-26T10:43:00,pkn,1.20
2022-07-26T10:45:00,pkn,1.20
2022-07-26T10:47:00,pkn,1.20
2022-07-26T10:50:00,pkn,8.40
2022-07-26T10:52:00,pkn,9.60
2022-07-26T10:54:00,pkn,9.60
2022-07-26T10:55:00,pkn,4.80
2022-07-26T10:57:00,pkn,6.00
2022-07-26T10:59:00,pkn,1.20
2022-07-26T11:02:00,pkn,1.20
2022-07-26T11:03:00,pkn,1.20
2022-07-26T11:05:00,pkn,1.20
2022-07-26T11:08:00,pkn,1.20
2022-07-26T11:10:00,pkn,1.20
2022-07-26T11:12:00,pkn,1.20
2022-07-26T11:14:00,pkn,1.20
2022-07-26T11:16:00,pkn,1.20
2022-07-26T11:20:00,pkn,1.20
2022-07-26T11:22:00,pkn,1.20
2022-07-26T11:23:00,pkn,1.20
2022-07-26T11:25:00,pkn,1.20
2022-07-26T11:27:00,pkn,1.20
2022-07-26T11:31:00,pkn,9.60
2022-07-26T11:32:00,pkn,1.20
2022-07-26T11:33:00,pkn,8.40
2022-07-26T11:34:00,pkn,1.20
2022-07-26T11:35:00,pkn,7.20
2022-07-26T11:36:00,pkn,6.00
2022-07-26T11:37:00,pkn,3.60
2022-07-26T11:39:00,pkn,10.80
2022-07-26T11:40:00,pkn,4.80
2022-07-26T11:42:00,pkn,9.60
2022-07-26T11:44:00,pkn,9.60
2022-07-26T11:46:00,pkn,7.20
2022-07-26T11:47:00,pkn,6.00
2022-07-26T11:49:00,pkn,2.40
2022-07-26T11:51:00,pkn,1.20
2022-07-26T11:54:00,pkn,1.20
2022-07-26T11:56:00,pkn,1.20
2022-07-26T11:58:00,pkn,1.20
2022-07-26T12:01:00,pkn,1.20
2022-07-26T12:03:00,pkn,1.20
2022-07-26T12:05:00,pkn,2.40
2022-07-26T12:07:00,pkn,7.20
2022-07-26T12:09:00,pkn,9.60
2022-07-26T12:10:00,pkn,4.80
2022-07-26T12:11:00,pkn,4.80
2022-07-26T12:13:00,pkn,9.60
2022-07-26T12:15:00,pkn,8.40
2022-07-26T12:16:00,pkn,4.80
2022-07-26T12:18:00,pkn,4.80
2022-07-26T12:19:00,pkn,1.20
2022-07-26T12:21:00,pkn,1.20
2022-07-26T12:24:00,pkn,1.20
2022-07-26T12:25:00,pkn,1.20
2022-07-26T12:27:00,pkn,1.20
2022-07-26T12:29:00,pkn,1.20
2022-07-26T12:31:00,pkn,1.20
2022-07-26T12:33:00,pkn,1.20
2022-07-26T12:34:00,pkn,1.20
2022-07-26T12:36:00,pkn,1.20
2022-07-26T12:38:00,pkn,1.20
2022-07-26T12:41:00,pkn,1.20
2022-07-26T12:43:00,pkn,1.20
2022-07-26T12:44:00,pkn,1.20
2022-07-26T12:47:00,pkn,1.20
2022-07-26T12:49:00,pkn,1.20
2022-07-26T12:50:00,pkn,3.60
2022-07-26T12:51:00,pkn,4.80
2022-07-26T12:53:00,pkn,9.60
2022-07-26T12:55:00,pkn,9.60
2022-07-26T12:56:00,pkn,3.60
2022-07-26T12:57:00,pkn,3.60
2022-07-26T12:58:00,pkn,1.20
2022-07-26T12:59:00,pkn,1.20
2022-07-26T13:00:00,pkn,1.20
2022-07-26T13:02:00,pkn,1.20
2022-07-26T13:04:00,pkn,1.20
2022-07-26T13:08:00,pkn,1.20
2022-07-26T13:10:00,pkn,1.20
2022-07-26T13:11:00,pkn,1.20
2022-07-26T13:13:00,pkn,1.20
2022-07-26T13:17:00,pkn,1.20
2022-07-26T13:19:00,pkn,1.20
2022-07-26T13:21:00,pkn,1.20
2022-07-26T13:23:00,pkn,1.20
2022-07-26T13:26:00,pkn,1.20
2022-07-26T13:28:00,pkn,1.20
2022-07-26T13:29:00,pkn,1.20
2022-07-26T13:32:00,pkn,1.20
2022-07-26T13:34:00,pkn,1.20
2022-07-26T13:36:00,pkn,1.20
2022-07-26T13:40:00,pkn,1.20
2022-07-26T13:41:00,pkn,1.20
2022-07-26T13:43:00,pkn,1.20
2022-07-26T13:46:00,pkn,2.40
2022-07-26T13:48:00,pkn,8.40
2022-07-26T13:50:00,pkn,9.60
2022-07-26T13:51:00,pkn,8.40
2022-07-26T13:52:00,pkn,9.60
2022-07-26T13:54:00,pkn,9.60
2022-07-26T13:55:00,pkn,1.20
2022-07-26T13:58:00,pkn,1.20
2022-07-26T13:59:00,pkn,1.20
2022-07-26T14:02:00,pkn,1.20
2022-07-26T14:04:00,pkn,1.20
2022-07-26T14:06:00,pkn,1.20
2022-07-26T14:07:00,pkn,1.20
2022-07-26T14:10:00,pkn,1.20
2022-07-26T14:11:00,pkn,1.20
2022-07-26T14:13:00,pkn,1.20
2022-07-26T14:16:00,pkn,1.20
2022-07-26T14:18:00,pkn,1.20
2022-07-26T14:21:00,pkn,1.20
2022-07-26T14:22:00,pkn,1.20
2022-07-26T14:24:00,pkn,1.20
2022-07-26T14:26:00,pkn,1.20
2022-07-26T14:28:00,pkn,1.20
2022-07-26T14:30:00,pkn,1.20
2022-07-26T14:33:00,pkn,2.40
2022-07-26T14:36:00,pkn,1.20
2022-07-26T14:37:00,pkn,1.20
2022-07-26T14:40:00,pkn,1.20
2022-07-26T14:42:00,pkn,1.20
2022-07-26T14:45:00,pkn,1.20
2022-07-26T14:46:00,pkn,1.20
2022-07-26T14:48:00,pkn,1.20
2022-07-26T14:50:00,pkn,1.20
2022-07-26T14:51:00,pkn,1.20
2022-07-26T14:53:00,pkn,1.20
2022-07-26T14:55:00,pkn,1.20
2022-07-26T14:57:00,pkn,1.20
2022-07-26T14:59:00,pkn,1.20
2022-07-26T15:00:00,pkn,1.20
2022-07-26T15:02:00,pkn,1.20
2022-07-26T15:05:00,pkn,8.40
2022-07-26T15:07:00,pkn,9.60
2022-07-26T15:09:00,pkn,9.60
2022-07-26T15:11:00,pkn,7.20
2022-07-26T15:13:00,pkn,1.20
2022-07-26T15:15:00,pkn,1.20
2022-07-26T15:17:00,pkn,1.20
2022-07-26T15:19:00,pkn,1.20
2022-07-26T15:22:00,pkn,1.20
2022-07-26T15:23:00,pkn,1.20
2022-07-26T15:25:00,pkn,1.20
2022-07-26T15:29:00,pkn,1.20
2022-07-26T15:30:00,pkn,1.20
2022-07-26T15:32:00,pkn,1.20
2022-07-26T15:34:00,pkn,1.20
2022-07-26T15:36:00,pkn,1.20
2022-07-26T15:37:00,pkn,1.20
2022-07-26T15:39:00,pkn,9.60
2022-07-26T15:41:00,pkn,9.60
2022-07-26T15:42:00,pkn,4.80
2022-07-26T15:44:00,pkn,8.40
2022-07-26T15:46:00,pkn,1.20
2022-07-26T15:48:00,pkn,1.20
2022-07-26T15:51:00,pkn,2.40
2022-07-26T15:54:00,pkn,1.20
2022-07-26T15:56:00,pkn,1.20
2022-07-26T15:57:00,pkn,1.20
2022-07-26T16:00:00,pkn,1.20
2022-07-26T16:02:00,pkn,1.20
2022-07-26T16:04:00,pkn,1.20
2022-07-26T16:07:00,pkn,1.20
2022-07-26T16:09:00,pkn,1.20
2022-07-26T16:11:00,pkn,1.20
2022-07-26T16:12:00,pkn,1.20
2022-07-26T16:15:00,pkn,1.20
2022-07-26T16:17:00,pkn,1.20
2022-07-26T16:19:00,pkn,1.20
2022-07-26T16:20:00,pkn,1.20
2022-07-26T16:22:00,pkn,1.20
2022-07-26T16:24:00,pkn,1.20
2022-07-26T16:26:00,pkn,1.20
2022-07-26T16:28:00,pkn,1.20
2022-07-26T16:30:00,pkn,1.20
2022-07-26T16:32:00,pkn,1.20
2022-07-26T16:34:00,pkn,6.00
2022-07-26T16:35:00,pkn,4.80
2022-07-26T16:37:00,pkn,9.60
2022-07-26T16:39:00,pkn,9.60
2022-07-26T16:41:00,pkn,6.00
2022-07-26T16:43:00,pkn,1.20
2022-07-26T16:46:00,pkn,1.20
2022-07-26T16:47:00,pkn,1.20
2022-07-26T16:49:00,pkn,1.20
2022-07-26T16:51:00,pkn,1.20
2022-07-26T16:54:00,pkn,1.20
2022-07-26T16:55:00,pkn,1.20
2022-07-26T16:57:00,pkn,1.20
2022-07-26T16:59:00,pkn,1.20
2022-07-26T17:01:00,pkn,1.20
2022-07-26T17:04:00,pkn,2.40
2022-07-26T17:06:00,pkn,1.20
2022-07-26T17:08:00,pkn,1.20
2022-07-26T17:10:00,pkn,1.20
2022-07-26T17:11:00,pkn,1.20
2022-07-26T17:12:00,pkn,1.20
2022-07-26T17:14:00,pkn,1.20
2022-07-26T17:17:00,pkn,2.40
2022-07-26T17:19:00,pkn,1.20
2022-07-26T17:21:00,pkn,1.20
2022-07-26T17:22:00,pkn,1.20
2022-07-26T17:24:00,pkn,1.20
2022-07-26T17:26:00,pkn,1.20
2022-07-26T17:29:00,pkn,1.20
2022-07-26T17:31:00,pkn,1.20
2022-07-26T17:32:00,pkn,1.20
2022-07-26T17:36:00,pkn,1.20
2022-07-26T17:38:00,pkn,1.20
2022-07-26T17:42:00,pkn,1.20
2022-07-26T17:44:00,pkn,1.20
2022-07-26T17:47:00,pkn,6.00
2022-07-26T17:49:00,pkn,8.40
2022-07-26T17:51:00,pkn,9.60
2022-07-26T17:52:00,pkn,3.60
2022-07-26T17:53:00,pkn,4.80
2022-07-26T17:55:00,pkn,2.40
2022-07-26T17:57:00,pkn,1.20
2022-07-26T18:01:00,pkn,1.20
2022-07-26T18:02:00,pkn,1.20
2022-07-26T18:05:00,pkn,1.20
2022-07-26T18:08:00,pkn,1.20
2022-07-26T18:09:00,pkn,1.20
2022-07-26T18:11:00,pkn,1.20
2022-07-26T18:15:00,pkn,1.20
2022-07-26T18:17:00,pkn,1.20
2022-07-26T18:19:00,pkn,1.20
2022-07-26T18:22:00,pkn,1.20
2022-07-26T18:23:00,pkn,1.20
2022-07-26T18:25:00,pkn,1.20
2022-07-26T18:28:00,pkn,1.20
2022-07-26T18:30:00,pkn,1.20
2022-07-26T18:32:00,pkn,1.20
2022-07-26T18:35:00,pkn,1.20
2022-07-26T18:37:00,pkn,1.20
2022-07-26T18:38:00,pkn,1.20
2022-07-26T18:40:00,pkn,1.20
2022-07-26T18:42:00,pkn,1.20
2022-07-26T18:44:00,pkn,1.20
2022-07-26T18:47:00,pkn,1.20
2022-07-26T18:48:00,pkn,1.20
2022-07-26T18:50:00,pkn,1.20
2022-07-26T18:52:00,pkn,1.20
2022-07-26T18:54:00,pkn,1.20
2022-07-26T18:55:00,pkn,1.20
2022-07-26T18:57:00,pkn,1.20
2022-07-26T19:00:00,pkn,1.20
2022-07-26T19:02:00,pkn,1.20
2022-07-26T19:03:00,pkn,8.40
2022-07-26T19:05:00,pkn,8.40
2022-07-26T19:06:00,pkn,6.00
2022-07-26T19:08:00,pkn,9.60
2022-07-26T19:10:00,pkn,7.20
2022-07-26T19:12:00,pkn,9.60
2022-07-26T19:14:00,pkn,3.60
2022-07-26T19:17:00,pkn,1.20
2022-07-26T19:19:00,pkn,1.20
2022-07-26T19:22:00,pkn,1.20
2022-07-26T19:25:00,pkn,1.20
2022-07-26T19:26:00,pkn,1.20
2022-07-26T19:29:00,pkn,1.20
2022-07-26T19:32:00,pkn,1.20
2022-07-26T19:34:00,pkn,1.20
2022-07-26T19:37:00,pkn,3.60
2022-07-26T19:38:00,pkn,4.80
2022-07-26T19:39:00,pkn,4.80
2022-07-26T19:41:00,pkn,8.40
2022-07-26T19:42:00,pkn,4.80
2022-07-26T19:44:00,pkn,8.40
2022-07-26T19:46:00,pkn,9.60
2022-07-26T19:48:00,pkn,4.80
2022-07-26T19:50:00,pkn,1.20
2022-07-26T19:53:00,pkn,1.20
2022-07-26T19:55:00,pkn,1.20
2022-07-26T19:58:00,pkn,1.20
2022-07-26T20:01:00,pkn,1.20
2022-07-26T20:04:00,pkn,1.20
2022-07-26T20:06:00,pkn,1.20
2022-07-26T20:08:00,pkn,1.20
2022-07-26T20:11:00,pkn,1.20
2022-07-26T20:13:00,pkn,1.20
2022-07-26T20:16:00,pkn,1.20
2022-07-26T20:18:00,pkn,1.20
2022-07-26T20:20:00,pkn,1.20
2022-07-26T20:22:00,pkn,1.20
2022-07-26T20:23:00,pkn,4.80
2022-07-26T20:25:00,pkn,8.40
2022-07-26T20:27:00,pkn,9.60
2022-07-26T20:28:00,pkn,6.00
2022-07-26T20:30:00,pkn,7.20
2022-07-26T20:32:00,pkn,7.20
2022-07-26T20:34:00,pkn,1.20
2022-07-26T20:35:00,pkn,1.20
2022-07-26T20:37:00,pkn,1.20
2022-07-26T20:40:00,pkn,1.20
2022-07-26T20:42:00,pkn,1.20
2022-07-26T20:44:00,pkn,1.20
2022-07-26T20:47:00,pkn,1.20
2022-07-26T20:49:00,pkn,1.20
2022-07-26T20:51:00,pkn,1.20
2022-07-26T20:54:00,pkn,1.20
2022-07-26T20:56:00,pkn,1.20
2022-07-26T20:59:00,pkn,1.20
2022-07-26T21:01:00,pkn,1.20
2022-07-26T21:05:00,pkn,1.20
2022-07-26T21:07:00,pkn,1.20
2022-07-26T21:09:00,pkn,4.80
2022-07-26T21:11:00,pkn,9.60
2022-07-26T21:13:00,pkn,9.60
2022-07-26T21:14:00,pkn,3.60
2022-07-26T21:16:00,pkn,9.60
2022-07-26T21:18:00,pkn,9.60
2022-07-26T21:19:00,pkn,3.60
2022-07-26T21:21:00,pkn,9.60
2022-07-26T21:23:00,pkn,3.60
2022-07-26T21:26:00,pkn,1.20
2022-07-26T21:29:00,pkn,1.20
2022-07-26T21:30:00,pkn,1.20
2022-07-26T21:32:00,pkn,2.40
2022-07-26T21:33:00,pkn,2.40
2022-07-26T21:35:00,pkn,2.40
2022-07-26T21:36:00,pkn,1.20
2022-07-26T21:38:00,pkn,1.20
2022-07-26T21:40:00,pkn,1.20
2022-07-26T21:41:00,pkn,1.20
2022-07-26T21:44:00,pkn,2.40
2022-07-26T21:47:00,pkn,6.00
2022-07-26T21:49:00,pkn,10.80
2022-07-26T21:50:00,pkn,3.60
2022-07-26T21:51:00,pkn,6.00
2022-07-26T21:53:00,pkn,8.40
2022-07-26T21:54:00,pkn,6.00
2022-07-26T21:56:00,pkn,2.40
2022-07-26T21:59:00,pkn,2.40
2022-07-26T22:02:00,pkn,1.20
2022-07-26T22:03:00,pkn,1.20
2022-07-26T22:05:00,pkn,1.20
2022-07-26T22:08:00,pkn,1.20
2022-07-26T22:10:00,pkn,1.20
2022-07-26T22:11:00,pkn,1.20
2022-07-26T22:13:00,pkn,1.20
2022-07-26T22:15:00,pkn,1.20
2022-07-26T22:16:00,pkn,1.20
2022-07-26T22:18:00,pkn,1.20
2022-07-26T22:19:00,pkn,1.20
2022-07-26T22:21:00,pkn,1.20
2022-07-26T22:23:00,pkn,1.20
2022-07-26T22:26:00,pkn,1.20
2022-07-26T22:27:00,pkn,1.20
2022-07-26T22:28:00,pkn,1.20
2022-07-26T22:29:00,pkn,1.20
2022-07-26T22:31:00,pkn,1.20
2022-07-26T22:32:00,pkn,1.20
2022-07-26T22:34:00,pkn,1.20
2022-07-26T22:35:00,pkn,1.20
2022-07-26T22:37:00,pkn,1.20
2022-07-26T22:39:00,pkn,1.20
2022-07-26T22:40:00,pkn,4.80
2022-07-26T22:42:00,pkn,10.80
2022-07-26T22:43:00,pkn,3.60
2022-07-26T22:45:00,pkn,9.60
2022-07-26T22:47:00,pkn,8.40
2022-07-26T22:48:00,pkn,1.20
2022-07-26T22:50:00,pkn,1.20
2022-07-26T22:51:00,pkn,1.20
2022-07-26T22:54:00,pkn,1.20
2022-07-26T22:55:00,pkn,1.20
2022-07-26T22:57:00,pkn,1.20
2022-07-26T22:59:00,pkn,1.20
2022-07-26T23:00:00,pkn,1.20
2022-07-26T23:03:00,pkn,1.20
2022-07-26T23:05:00,pkn,2.40
2022-07-26T23:08:00,pkn,1.20
2022-07-26T23:10:00,pkn,1.20
2022-07-26T23:12:00,pkn,1.20
2022-07-26T23:14:00,pkn,1.20
2022-07-26T23:17:00,pkn,1.20
2022-07-26T23:18:00,pkn,1.20
2022-07-26T23:20:00,pkn,7.20
2022-07-26T23:21:00,pkn,6.00
2022-07-26T23:23:00,pkn,9.60
2022-07-26T23:24:00,pkn,3.60
2022-07-26T23:25:00,pkn,6.00
2022-07-26T23:27:00,pkn,8.40
2022-07-26T23:29:00,pkn,9.60
2022-07-26T23:31:00,pkn,9.60
2022-07-26T23:32:00,pkn,4.80
2022-07-26T23:33:00,pkn,4.80
2022-07-26T23:34:00,pkn,4.80
2022-07-26T23:36:00,pkn,9.60
2022-07-26T23:38:00,pkn,8.40
2022-07-26T23:39:00,pkn,3.60
2022-07-26T23:41:00,pkn,1.20
2022-07-26T23:44:00,pkn,1.20
2022-07-26T23:46:00,pkn,1.20
2022-07-26T23:48:00,pkn,1.20
2022-07-26T23:51:00,pkn,1.20
2022-07-26T23:52:00,pkn,1.20
2022-07-26T23:55:00,pkn,1.20
2022-07-26T23:56:00,pkn,3.60
2022-07-26T23:58:00,pkn,9.60
